Regional Weather Roundup
Issued by NWS

Home | Current Version | Previous Version | Text Only | Print | Product List | Glossary On
Versions: 1 2 3 4 5 6 7 8 9 10 11 12 13 14 15 16 17 18 19 20 21 22 23 24 25 26 27 28 29 30 31 32 33 34 35 36 37 38 39 40 41 42 43 44 45 46 47 48 49 50
628
ASUS43 KMKX 180521
RWRWI

WISCONSIN REGIONAL WEATHER ROUNDUP
NATIONAL WEATHER SERVICE MILWAUKEE/SULLIVAN WI
1200 AM CDT WED OCT 18 2017

NOTE: "FAIR" INDICATES FEW OR NO CLOUDS BELOW 12,000 FEET WITH NO
SIGNIFICANT WEATHER AND/OR OBSTRUCTIONS TO VISIBILITY.

WIZ001-002-006>008-014>016-023>028-180600-
NORTHWEST WISCONSIN

CITY           SKY/WX    TMP DP  RH WIND       PRES   REMARKS
SUPERIOR ARPT  CLEAR     41  39  93 CALM      29.83F
ASHLAND        CLEAR     52  43  71 SW5       29.86F
HAYWARD        CLEAR     54  44  69 S6        29.90F
SIREN          CLEAR     58  42  54 S8        29.88S
CUMBERLAND     CLEAR     50  41  71 S7        29.91F
RICE LAKE      CLEAR     51  43  74 SE5       29.93S
CHETEK         CLEAR     49  46  88 CALM      29.92F
LADYSMITH      CLEAR     53  45  73 S6        29.94F
EAU CLAIRE     CLEAR     51  46  83 S3        29.93F
MENOMONIE      CLEAR     52  45  76 E5        29.93F
NEW RICHMOND   CLEAR     54  42  64 S7        29.91S
OSCEOLA        CLEAR     55  44  65 S6        29.92F
$$

WIZ003>005-009-010-017-018-180600-
NORTH CENTRAL WISCONSIN

CITY           SKY/WX    TMP DP  RH WIND       PRES   REMARKS
MANITOWISH WTR CLEAR     49  45  86 S8        29.93F
ARBOR VITAE    CLEAR     52  45  78 S6        29.94F
WOODRUFF       CLEAR     52  45  78 S6        29.94F
RHINELANDER    CLEAR     54  45  71 SW7       29.97F
EAGLE RIVER    CLEAR     48  41  76 CALM      29.95F
LAND O LAKES   CLEAR     47  43  83 CALM      29.96F
PHILLIPS       CLEAR     52  44  74 S5        29.93F
TOMAHAWK       CLEAR     47  43  86 CALM      29.97S
MEDFORD        CLEAR     47  43  84 S8        29.97F
MERRILL        CLEAR     38  38 100 CALM      29.98F
$$

WIZ029-030-035-036-043>047-180600-
CENTRAL WISCONSIN

CITY           SKY/WX    TMP DP  RH WIND       PRES   REMARKS
WAUSAU         CLEAR     51  45  79 S6        29.98S
MOSINEE        CLEAR     50  45  81 S8        30.01S
MARSHFIELD     CLEAR     53  43  68 S9        29.99S
STEVENS POINT  CLEAR     51  43  76 SW7       30.01S
WAUPACA        CLEAR     53  45  75 S6        30.02F
WAUTOMA        CLEAR     43  41  93 CALM      30.04F
WISC RAPIDS    CLEAR     53  45  74 S7        30.02S
CAMP DOUGLAS   CLEAR     59  44  58 S9        30.01F
$$

WIZ011>013-019>022-031-037>040-048>050-180600-
NORTHEAST WISCONSIN

CITY           SKY/WX    TMP DP  RH WIND       PRES   REMARKS
ANTIGO         CLEAR     49  44  81 SW8       29.99F
SHAWANO        CLEAR     55  47  74 CALM      30.00S
OCONTO         CLEAR     54  47  77 SW5       30.00F
STURGEON BAY   CLEAR     54  46  74 S9        30.01F
GREEN BAY      CLEAR     56  48  74 SW8       30.02F
MANITOWOC      CLEAR     60  43  53 SW9       30.05S
APPLETON       CLEAR     55  41  58 SW13      30.02S
CLINTONVILLE   CLEAR     54  45  71 S7        30.01F
OSHKOSH        CLEAR     56  44  64 S14       30.04S
$$

WIZ032>034-041-042-053>061-180600-
SOUTHWEST WISCONSIN

CITY           SKY/WX    TMP DP  RH WIND       PRES   REMARKS
LA CROSSE      CLEAR     58  46  64 S8        30.00S
SPARTA         CLEAR     47  42  83 CALM      30.02S
VIROQUA        CLEAR     55  45  68 S8        30.03F
BOSCOBEL       CLEAR     47  43  86 CALM      30.05S
PRAIRIE DU CHI CLEAR     58  42  54 S5        30.04S
PLATTEVILLE    CLEAR     53  44  71 S9        30.08S
$$

WIZ056-057-062-063-064-067-068-180600-
SOUTH CENTRAL WISCONSIN

CITY           SKY/WX    TMP DP  RH WIND       PRES   REMARKS
REEDSBURG      CLEAR     54  43  66 S6        30.05S
BARABOO/DELLS  CLEAR     53  42  65 S8        30.05S
LONE ROCK      CLEAR     53  44  71 CALM      30.06S
MINERAL POINT  CLEAR     54  43  66 S8        30.07F
MADISON        CLEAR     56  43  61 S7        30.08S
MIDDLETON      CLEAR     57  42  57 SW5       30.08S
WATERTOWN      CLEAR     52  44  74 S8        30.09S
MONROE         CLEAR     50  41  71 S13       30.09F
JANESVILLE     CLEAR     52  41  66 S7        30.10S
$$

WIZ051-052-058>065-066-070>072-180600-
SOUTHEAST WISCONSIN

CITY           SKY/WX    TMP DP  RH WIND       PRES   REMARKS
MILWAUKEE      PTCLDY    58  41  53 SW9       30.11S
WAUKESHA       CLEAR     54  39  58 S6        30.11F
MILWAUKEE/TIMM PTCLDY    54  37  54 SW7       30.11S
RACINE         CLEAR     53  42  66 S5        30.13S
BURLINGTON     CLEAR     52  43  70 S6        30.12S
KENOSHA        CLEAR     50  40  68 SW3       30.12S
FOND DU LAC    CLEAR     58  40  51 S8        30.06S
SHEBOYGAN      CLEAR     52  44  74 S8        30.06F
WEST BEND      CLEAR     55  39  54 SW12      30.08S
JUNEAU         CLEAR     53  41  64 S7        30.09S
$$

LSZ147-162-180600-
LAKE SUPERIOR

STATION/POSITION TIME  TEMP    WIND        PRES    WAVE
                       AIR SEA DIR/SP/G            HT/PER
                 (UTC) (F)     (DEG/KT/KT) (MB)    (FT/S)
W MID LAKE BUOY  0450   56 53              1010.4F   1/ 3
DEVILS ISLAND    0500   61     180/ 10/ 12 1010.3F
SAXON HARBOR     0440   60     180/  7/ 12 1010.8F
$$

LMZ867-665-643>646-180600-
LAKE MICHIGAN

STATION/POSITION TIME  TEMP    WIND        PRES    WAVE
                       AIR SEA DIR/SP/G            HT/PER
                 (UTC) (F)     (DEG/KT/KT) (MB)    (FT/S)
S GREEN BAY BUOY 0500   60 58  210/ 14/ 16 1015.7F
N MID LAKE BUOY  0450   60 59  180/ 14/ 16 1016.5F   3/ 5
NORTHPORT PIER   0440   57     180/  4/  9 1015.6F
KEWAUNEE LAKESHO 0454   59     230/  8/ 15 1015.7F
SHEBOYGAN LAKESH 0500   58     200/ 13/ 14 1017.7F
PORT WASHINGTON  0440   56     220/  2/  6 1019.3F
MILWAUKEE LAKESH 0500   59     230/ 10/ 12   N/A
S MID LAKE BUOY  0450   62 61  230/ 19/ 23 1019.9F   3/ 5
KENOSHA   LAKESH 0500   57     200/  6/  8 1020.0
$$

TC  - TEMPERATURE IN CELSIUS
VSB - VISIBILITY IN STATUTE MILES
WCI - WIND CHILL INDEX
HX  - HEAT INDEX





USA.gov is the U.S. government's official web portal to all federal, state and local government web resources and services.